Location: Cheching
(60.0667°N, 164.2167°W)
Time: 00:13:55
(UTC+00:00)

DX 1 - Pass Details

Date: 31 January 2021
Orbit: 618 x 631 km, 98.5° (Epoch: 07 March)

Event Time Altitude Azimuth Distance (km) Brightness Sun altitude
Rises 16:30:30 0° 164° (SSE) 2,905 ? -19.8°
Reaches altitude 10° 16:32:41 10° 166° (SSE) 2,000 ? -19.5°
Maximum altitude 16:37:02 78° 253° (WSW) 646 ? -19.0°
Drops below altitude 10° 16:41:25 10° 340° (NNW) 2,007 ? -18.4°
Enters shadow 16:41:52 - 341° (NNW) 2,196 ? -18.4°
